Nickajack Observed Data For Previous 48 Hours

Caption
Day and Hour Reservoir Elevation (behind dam)* Tailwater Elevation (below dam)* Average Hourly Discharge*
6/20/2018 1 AM CDT 633.47 595.32 16,133
6/20/2018 2 AM CDT 633.33 595.23 15,962
6/20/2018 3 AM CDT 633.21 595.18 15,957
6/20/2018 4 AM CDT 633.07 595.17 15,942
6/20/2018 5 AM CDT 633.01 595.18 15,965
6/20/2018 6 AM CDT 632.90 595.19 15,919
6/20/2018 7 AM CDT 632.79 595.20 15,943
6/20/2018 8 AM CDT 632.67 595.18 15,894
6/20/2018 9 AM CDT 632.56 595.18 15,934
6/20/2018 10 AM CDT 632.54 595.22 15,859
6/20/2018 11 AM CDT 632.62 595.18 15,865
6/20/2018 12 PM CDT 632.64 595.17 15,928
6/20/2018 1 PM CDT 632.71 595.60 23,423
6/20/2018 2 PM CDT 632.75 596.04 29,969
6/20/2018 3 PM CDT 632.81 596.14 30,189
6/20/2018 4 PM CDT 633.02 596.21 29,958
6/20/2018 5 PM CDT 633.23 596.23 30,063
6/20/2018 6 PM CDT 633.43 596.26 29,929
6/20/2018 7 PM CDT 633.68 596.25 29,804
6/20/2018 8 PM CDT 633.89 596.23 29,806
6/20/2018 9 PM CDT 633.89 596.22 29,702
6/20/2018 10 PM CDT 633.86 596.21 29,715
6/20/2018 11 PM CDT 633.84 596.20 29,787
6/21/2018 12 AM CDT 633.75 596.21 29,743
6/21/2018 1 AM CDT 633.79 595.50 16,164
6/21/2018 2 AM CDT 633.56 595.28 15,940
6/21/2018 3 AM CDT 633.47 595.16 15,978
6/21/2018 4 AM CDT 633.34 595.12 15,952
6/21/2018 5 AM CDT 633.24 595.15 15,936
6/21/2018 6 AM CDT 633.15 595.12 15,964
6/21/2018 7 AM CDT 633.05 595.13 15,935
6/21/2018 8 AM CDT 632.82 595.45 18,645
6/21/2018 9 AM CDT 632.87 595.23 18,416
6/21/2018 10 AM CDT 632.85 595.20 15,916
6/21/2018 11 AM CDT 632.80 595.19 15,928
6/21/2018 12 PM CDT 632.84 595.13 15,722
6/21/2018 1 PM CDT 632.78 595.90 29,032
6/21/2018 2 PM CDT 632.96 596.16 29,881
6/21/2018 3 PM CDT 633.17 596.44 30,047
6/21/2018 4 PM CDT 633.47 596.39 30,039
6/21/2018 5 PM CDT 633.76 596.42 29,964
6/21/2018 6 PM CDT 634.03 596.42 29,855
6/21/2018 7 PM CDT 634.30 596.42 29,732
6/21/2018 8 PM CDT 634.47 - 999.00 29,835
6/21/2018 9 PM CDT 634.60 596.37 29,715
6/21/2018 10 PM CDT 634.75 596.33 29,533
6/21/2018 11 PM CDT 634.72 596.30 29,571
6/22/2018 12 AM CDT 634.69 596.30 29,763

Elevations are in feet above sea level. Discharges are in cubic feet per second and are reported at the end of the hour.